Port Huron, MI

3:38 AM EDT on August 24, 2019 (GMT -0400)
Saint Clair County International

Weather History for KPHN - June, 2019

Change the Weather History Date:

Sunday, June 9, 2019

  Actual Average (WUND) Record (WUND)
Temperature  
Mean Temperature 68 °F -  
Max Temperature 78 °F - - (-1)
Min Temperature 59 °F - - (-1)
Cooling Degree Days 4    
Growing Degree Days 18 (Base 50)    
Moisture  
Dew Point 53 °F    
Average Humidity 53    
Maximum Humidity 63    
Minimum Humidity 30    
Precipitation  
Precipitation 0.00 in - - ()
Sea Level Pressure  
Sea Level Pressure 30.06 in    
Wind  
Wind Speed 8 mph (SE)    
Max Wind Speed 13 mph    
Max Gust Speed 20 mph    
Visibility 10 miles    
Events      
Averages and records for this station are not official NWS values.
T = Trace of Precipitation, MM = Missing Value Source: NWS Daily Summary

Daily Weather History Graph

Daily Weather History Graph

Search for Another Location

Airport or City:

Astronomy

Jun. 09, 2019 Rise Set
Actual Time 5:51 AM EDT 9:07 PM EDT
Civil Twilight 5:16 AM EDT 9:42 PM EDT
Nautical Twilight 4:31 AM EDT 10:27 PM EDT
Astronomical Twilight 3:36 AM EDT 11:23 PM EDT
Moon 12:33 PM EDT (6/9) 1:42 AM EDT (6/9)
Length of Visible Light 16h 26m
Length of Day
15h 16m
Waxing Crescent, 43% of the Moon is Illuminated
Jun 9
Waxing Crescent
Jun 10
First Quarter
Jun 17
Full
Jun 25
Last Quarter
Jul 2
New

Hourly Weather History & Observations

Time (EDT) Temp. Dew Point Humidity Pressure Visibility Wind Dir Wind Speed Gust Speed Precip Events Conditions
12:16 AM 68.0 °F 37.4 °F 33% 30.11 in 10.0 mi East 11.5 mph 17.3 mph N/A   Clear
12:35 AM 68.0 °F 35.6 °F 30% 30.11 in 10.0 mi East 8.1 mph - N/A   Clear
12:36 AM 66.2 °F 35.6 °F 32% 30.11 in 10.0 mi East 9.2 mph - N/A   Clear
12:55 AM 66.2 °F 35.6 °F 32% 30.10 in 10.0 mi ESE 6.9 mph - N/A   Clear
1:19 AM 64.4 °F 37.4 °F 37% 30.10 in 10.0 mi East 6.9 mph - N/A   Clear
1:37 AM 64.4 °F 37.4 °F 37% 30.11 in 10.0 mi ESE 6.9 mph - N/A   Clear
1:55 AM 64.4 °F 37.4 °F 37% 30.10 in 10.0 mi ESE 5.8 mph - N/A   Clear
1:56 AM 64.4 °F 37.4 °F 37% 30.10 in 10.0 mi ESE 6.9 mph - N/A   Clear
2:15 AM 64.4 °F 37.4 °F 37% 30.10 in 10.0 mi ESE 6.9 mph - N/A   Clear
2:35 AM 64.4 °F 39.2 °F 40% 30.09 in 10.0 mi ESE 6.9 mph - N/A   Clear
2:58 AM 64.4 °F 41.0 °F 42% 30.09 in 10.0 mi ESE 5.8 mph - N/A   Clear
3:16 AM 62.6 °F 41.0 °F 45% 30.09 in 10.0 mi East 4.6 mph - N/A   Clear
3:35 AM 62.6 °F 42.8 °F 48% 30.09 in 10.0 mi East 5.8 mph - N/A   Clear
3:55 AM 60.8 °F 44.6 °F 55% 30.09 in 10.0 mi ENE 3.5 mph - N/A   Clear
4:19 AM 59.0 °F 44.6 °F 59% 30.08 in 10.0 mi East 4.6 mph - N/A   Clear
4:37 AM 59.0 °F 46.4 °F 63% 30.09 in 10.0 mi East 4.6 mph - N/A   Clear
4:55 AM 60.8 °F 46.4 °F 59% 30.09 in 10.0 mi East 4.6 mph - N/A   Clear
5:15 AM 60.8 °F 46.4 °F 59% 30.09 in 10.0 mi ENE 3.5 mph - N/A   Clear
5:35 AM 60.8 °F 46.4 °F 59% 30.09 in 10.0 mi East 3.5 mph - N/A   Clear
5:40 AM 60.8 °F 48.2 °F 63% 30.09 in 10.0 mi East 4.6 mph - N/A   Clear
5:58 AM 60.8 °F 48.2 °F 63% 30.10 in 10.0 mi East 4.6 mph - N/A   Clear
6:16 AM 62.6 °F 50.0 °F 63% 30.10 in 10.0 mi East 4.6 mph - N/A   Clear
6:35 AM 64.4 °F 50.0 °F 59% 30.10 in 10.0 mi ESE 6.9 mph - N/A   Clear
6:36 AM 64.4 °F 50.0 °F 59% 30.10 in 10.0 mi ESE 5.8 mph - N/A   Clear
6:55 AM 66.2 °F 51.8 °F 60% 30.10 in 10.0 mi ESE 6.9 mph - N/A   Clear
6:56 AM 66.2 °F 51.8 °F 60% 30.10 in 10.0 mi ESE 8.1 mph - N/A   Clear
7:18 AM 66.2 °F 51.8 °F 60% 30.10 in 10.0 mi ESE 6.9 mph - N/A   Clear
7:37 AM 68.0 °F 51.8 °F 56% 30.10 in 10.0 mi ESE 8.1 mph - N/A   Clear
7:55 AM 69.8 °F 51.8 °F 53% 30.10 in 10.0 mi ESE 10.4 mph - N/A   Clear
8:15 AM 69.8 °F 51.8 °F 53% 30.11 in 10.0 mi ESE 9.2 mph 18.4 mph N/A   Clear
8:16 AM 69.8 °F 51.8 °F 53% 30.11 in 10.0 mi ESE 9.2 mph 18.4 mph N/A   Clear
8:35 AM 71.6 °F 53.6 °F 53% 30.10 in 10.0 mi ESE 10.4 mph 17.3 mph N/A   Clear
8:40 AM 71.6 °F 53.6 °F 53% 30.10 in 10.0 mi ESE 9.2 mph 17.3 mph N/A   Clear
8:58 AM 71.6 °F 53.6 °F 53% 30.10 in 10.0 mi SE 10.4 mph 17.3 mph N/A   Clear
9:16 AM 71.6 °F 55.4 °F 57% 30.10 in 10.0 mi SE 9.2 mph - N/A   Clear
9:35 AM 71.6 °F 55.4 °F 57% 30.10 in 10.0 mi SE 8.1 mph - N/A   Clear
9:36 AM 71.6 °F 55.4 °F 57% 30.10 in 10.0 mi SE 9.2 mph - N/A   Clear
9:55 AM 73.4 °F 55.4 °F 53% 30.10 in 10.0 mi SE 10.4 mph - N/A   Clear
10:19 AM 73.4 °F 55.4 °F 53% 30.10 in 10.0 mi ESE 11.5 mph 18.4 mph N/A   Clear
10:37 AM 73.4 °F 55.4 °F 53% 30.10 in 10.0 mi SE 9.2 mph 19.6 mph N/A   Clear
10:55 AM 73.4 °F 55.4 °F 53% 30.10 in 10.0 mi SE 9.2 mph 16.1 mph N/A   Clear
10:56 AM 73.4 °F 55.4 °F 53% 30.10 in 10.0 mi SE 9.2 mph 16.1 mph N/A   Clear
11:15 AM 75.2 °F 55.4 °F 50% 30.10 in 10.0 mi SE 12.7 mph 18.4 mph N/A   Clear
11:35 AM 77.0 °F 57.2 °F 50% 30.10 in 10.0 mi SE 10.4 mph 18.4 mph N/A   Clear
11:58 AM 75.2 °F 55.4 °F 50% 30.10 in 10.0 mi SE 10.4 mph - N/A   Clear
12:16 PM 73.4 °F 55.4 °F 53% 30.10 in 10.0 mi SE 10.4 mph - N/A   Scattered Clouds
12:35 PM 75.2 °F 57.2 °F 53% 30.09 in 10.0 mi SSE 6.9 mph - N/A   Scattered Clouds
12:36 PM 75.2 °F 57.2 °F 53% 30.09 in 10.0 mi SSE 8.1 mph - N/A   Scattered Clouds
12:55 PM 73.4 °F 57.2 °F 57% 30.10 in 10.0 mi SSE 10.4 mph - N/A   Overcast
12:56 PM 73.4 °F 57.2 °F 57% 30.09 in 10.0 mi SE 10.4 mph - N/A   Overcast
1:19 PM 75.2 °F 57.2 °F 53% 30.09 in 10.0 mi SE 11.5 mph 19.6 mph N/A   Mostly Cloudy
1:37 PM 77.0 °F 57.2 °F 50% 30.09 in 10.0 mi SSE 10.4 mph 16.1 mph N/A   Scattered Clouds
1:55 PM 77.0 °F 59.0 °F 54% 30.08 in 10.0 mi SE 9.2 mph - N/A   Mostly Cloudy
2:15 PM 77.0 °F 59.0 °F 54% 30.08 in 10.0 mi SSE 9.2 mph - N/A   Overcast
2:16 PM 77.0 °F 59.0 °F 54% 30.08 in 10.0 mi SSE 8.1 mph - N/A   Overcast
2:35 PM 77.0 °F 59.0 °F 54% 30.07 in 10.0 mi SSE 10.4 mph - N/A   Overcast
2:39 PM 77.0 °F 59.0 °F 54% 30.07 in 10.0 mi South 9.2 mph - N/A   Overcast
2:58 PM 77.0 °F 59.0 °F 54% 30.07 in 10.0 mi SSE 10.4 mph - N/A   Overcast
3:16 PM 77.0 °F 59.0 °F 54% 30.06 in 10.0 mi SSE 6.9 mph - N/A   Mostly Cloudy
3:35 PM 77.0 °F 60.8 °F 57% 30.06 in 10.0 mi SE 8.1 mph - N/A   Scattered Clouds
3:55 PM 78.8 °F 59.0 °F 51% 30.05 in 10.0 mi SSE 11.5 mph - N/A   Clear
3:56 PM 78.8 °F 59.0 °F 51% 30.05 in 10.0 mi SSE 9.2 mph - N/A   Clear
4:19 PM 78.8 °F 59.0 °F 51% 30.04 in 10.0 mi SE 6.9 mph - N/A   Mostly Cloudy
4:37 PM 78.8 °F 60.8 °F 54% 30.04 in 10.0 mi SSE 4.6 mph - N/A   Mostly Cloudy
4:55 PM 78.8 °F 60.8 °F 54% 30.04 in 10.0 mi SE 6.9 mph - N/A   Mostly Cloudy
4:56 PM 78.8 °F 60.8 °F 54% 30.04 in 10.0 mi SE 5.8 mph - N/A   Mostly Cloudy
5:15 PM 78.8 °F 60.8 °F 54% 30.04 in 10.0 mi SE 8.1 mph - N/A   Scattered Clouds
5:16 PM 78.8 °F 60.8 °F 54% 30.04 in 10.0 mi ESE 9.2 mph - N/A   Scattered Clouds
5:35 PM 77.0 °F 60.8 °F 57% 30.03 in 10.0 mi SE 5.8 mph - N/A   Clear
5:58 PM 77.0 °F 59.0 °F 54% 30.03 in 10.0 mi ESE 8.1 mph 16.1 mph N/A   Clear
6:16 PM 77.0 °F 60.8 °F 57% 30.02 in 10.0 mi ESE 8.1 mph - N/A   Clear
6:35 PM 77.0 °F 60.8 °F 57% 30.02 in 10.0 mi ESE 6.9 mph - N/A   Clear
6:36 PM 77.0 °F 60.8 °F 57% 30.02 in 10.0 mi ESE 6.9 mph - N/A   Clear
6:55 PM 77.0 °F 59.0 °F 54% 30.02 in 10.0 mi SE 6.9 mph - N/A   Clear
6:56 PM 77.0 °F 59.0 °F 54% 30.02 in 10.0 mi ESE 6.9 mph - N/A   Clear
7:19 PM 77.0 °F 59.0 °F 54% 30.02 in 10.0 mi SE 8.1 mph - N/A   Clear
7:37 PM 77.0 °F 59.0 °F 54% 30.02 in 10.0 mi SE 4.6 mph - N/A   Clear
7:55 PM 77.0 °F 59.0 °F 54% 30.02 in 10.0 mi ESE 6.9 mph - N/A   Clear
8:15 PM 75.2 °F 57.2 °F 53% 30.02 in 10.0 mi ESE 5.8 mph - N/A   Clear
8:16 PM 75.2 °F 57.2 °F 53% 30.02 in 10.0 mi SE 5.8 mph - N/A   Clear
8:35 PM 75.2 °F 57.2 °F 53% 30.01 in 10.0 mi ESE 8.1 mph - N/A   Clear
8:58 PM 75.2 °F 57.2 °F 53% 30.01 in 10.0 mi SE 6.9 mph - N/A   Clear
9:16 PM 75.2 °F 57.2 °F 53% 30.00 in 10.0 mi ESE 4.6 mph - N/A   Scattered Clouds
9:35 PM 73.4 °F 57.2 °F 57% 30.00 in 10.0 mi SE 5.8 mph - N/A   Mostly Cloudy
9:36 PM 73.4 °F 57.2 °F 57% 30.00 in 10.0 mi SE 5.8 mph - N/A   Mostly Cloudy
9:55 PM 73.4 °F 57.2 °F 57% 29.99 in 10.0 mi ESE 5.8 mph - N/A   Overcast
9:56 PM 73.4 °F 57.2 °F 57% 29.99 in 10.0 mi ESE 5.8 mph - N/A   Overcast
10:19 PM 73.4 °F 57.2 °F 57% 29.99 in 10.0 mi SE 5.8 mph - N/A   Overcast
10:36 PM 73.4 °F 57.2 °F 57% 29.99 in 10.0 mi SE 6.9 mph - N/A   Overcast
10:55 PM 73.4 °F 57.2 °F 57% 29.98 in 10.0 mi SE 6.9 mph - N/A   Overcast
10:56 PM 73.4 °F 57.2 °F 57% 29.99 in 10.0 mi SE 6.9 mph - N/A   Overcast
11:15 PM 73.4 °F 57.2 °F 57% 29.98 in 10.0 mi SE 8.1 mph - N/A   Mostly Cloudy
11:16 PM 73.4 °F 57.2 °F 57% 29.98 in 10.0 mi SE 8.1 mph - N/A   Mostly Cloudy
11:35 PM 73.4 °F 57.2 °F 57% 29.98 in 10.0 mi SE 8.1 mph - N/A   Overcast
11:58 PM 73.4 °F 59.0 °F 61% 29.97 in 10.0 mi SE 6.9 mph - N/A   Overcast